Location: Moscow Pond
(43.6842°N, 73.2366°W)
Time: 07:19:20
(UTC+00:00)

Cosmos 1459 Rocket - Pass Details

Date: 08 November 2025
Orbit: 936 x 998 km, 83.0° (Epoch: 13 December)

Event Time Altitude Azimuth Distance (km) Brightness Sun altitude
Rises 09:59:29 0° 347° (NNW) 3,729 6.9 -18.1°
Reaches altitude 10° 10:02:05 10° 343° (NNW) 2,776 6.1 -17.6°
Maximum altitude 10:08:13 52° 269° (W) 1,219 4.1 -16.5°
Drops below altitude 10° 10:14:18 10° 195° (SSW) 2,740 6.3 -15.4°
Sets 10:16:51 0° 190° (S) 3,677 7.0 -15.0°
